Location: Unspecified
(57.6483°N, 3.3184°W)
Time: 10:02:24
(UTC+00:00)

BlueWalker 3 - Pass Details

Date: 01 February 2026
Orbit: 450 x 461 km, 53.2° (Epoch: 11 February)

Event Time Altitude Azimuth Distance (km) Brightness Sun altitude
Rises 20:31:24 0° 274° (W) 2,461 6.5 -30.7°
Reaches altitude 10° 20:34:04 10° 254° (WSW) 1,585 5.1 -31.0°
Enters shadow 20:34:17 11° 251° (WSW) 1,527 4.9 -31.1°
